Regional Weather Roundup
Issued by NWS Little Rock, AR

Home | Current Version | Previous Version | Text Only | Print | Product List | Glossary On
Versions: 1 2 3 4 5 6 7 8 9 10 11 12 13 14 15 16 17 18 19 20 21 22 23 24 25 26 27 28 29 30 31 32 33 34 35 36 37 38 39 40 41 42 43 44 45 46 47 48 49 50
000
ASUS44 KLZK 180705
RWRLZK

WEATHER ROUNDUP FOR ARKANSAS
NATIONAL WEATHER SERVICE LITTLE ROCK AR
100 AM CST MON NOV 18 2019

NOTE: "FAIR" INDICATES FEW OR NO CLOUDS BELOW 12,000 FEET WITH NO
SIGNIFICANT WEATHER AND/OR OBSTRUCTIONS TO VISIBILITY.

ARZ001-003-010-029-180800-
NORTHWEST ARKANSAS

CITY           SKY/WX    TMP DP  RH WIND       PRES   REMARKS
FAYETTEVILLE   CLEAR     30  29  96 CALM      29.98F
FORT SMITH     CLEAR     40  38  93 SW6       29.98S
HARRISON       CLEAR     40  35  83 W5        29.95S
BENTONVILLE    CLEAR     34  33  96 CALM      29.99F
ROGERS         CLEAR     37  35  92 SW3       29.97F
SILOAM SPGS    CLEAR     36  34  92 CALM      29.98F
HIGHFILL       CLEAR     33  31  92 W5        29.97F WCI  29
$$

ARZ004-005-016-180800-
NORTH CENTRAL ARKANSAS

CITY           SKY/WX    TMP DP  RH WIND       PRES   REMARKS
BATESVILLE     CLEAR     39  36  89 NW5       29.94F
FLIPPIN        CLEAR     40  37  89 NW3       29.95F
MTN HOME       CLEAR     39  37  92 CALM      29.93S
$$

ARZ040-041-180800-
WEST CENTRAL ARKANSAS

CITY           SKY/WX    TMP DP  RH WIND       PRES   REMARKS
MENA           NOT AVBL
MOUNT IDA      CLEAR     34  32  92 CALM      29.92F
$$

ARZ009-017-025-026-028-180800-
NORTHEAST ARKANSAS

CITY           SKY/WX    TMP DP  RH WIND       PRES   REMARKS
JONESBORO      FAIR      43  36  76 CALM      29.92F
NEWPORT        MOCLDY    41  37  86 NW8       29.93F
WALNUT RIDGE   CLOUDY   N/A N/A N/A W6        29.92F
BLYTHEVILLE    MOCLDY    41  35  79 W5        29.91S
$$

ARZ022-023-033-042-044-180800-
CENTRAL ARKANSAS

CITY           SKY/WX    TMP DP  RH WIND       PRES   REMARKS
LITTLE ROCK    CLEAR     37  34  89 W5        29.95F
N LITTLE ROCK    N/A     44  37  74 CALM      29.98F
BENTON         MOSUNNY   34  32  93 CALM      29.95F
JACKSONVILLE   CLEAR     32  31  94 CALM      29.94S
CONWAY         PTSUNNY   37  36  93 SW3       29.95S
SEARCY         FAIR      33  33 100 CALM      29.95F
HOT SPRINGS    CLEAR     36  33  89 CALM      29.96F
RUSSELLVILLE   CLEAR     33  31  92 CALM      29.95F
CLINTON        FAIR      30  30 100 CALM      29.96F
$$

ARZ036-180800-
EAST ARKANSAS

CITY           SKY/WX    TMP DP  RH WIND       PRES   REMARKS
WEST MEMPHIS   FAIR      35  35 100 CALM      29.91F
$$

ARZ050-053-066-070-073-180800-
SOUTHWEST ARKANSAS

CITY           SKY/WX    TMP DP  RH WIND       PRES   REMARKS
ARKADELPHIA    FAIR      33  32  96 CALM      29.97F
CAMDEN         FAIR      36  34  93 CALM      29.96F
TEXARKANA      CLEAR     43  37  79 CALM      29.96F
EL DORADO      FAIR      37  36  96 CALM      29.96F
DE QUEEN       PTCLDY    34  32  92 CALM      29.96F
$$

ARZ056-057-069-180800-
SOUTHEAST ARKANSAS

CITY           SKY/WX    TMP DP  RH WIND       PRES   REMARKS
PINE BLUFF     FAIR      36  32  85 CALM      29.95F
STUTTGART      FAIR      39  35  86 W6        29.95F
MONTICELLO     FAIR      40  35  83 W3        29.95F

$$





USA.gov is the U.S. government's official web portal to all federal, state and local government web resources and services.